Weather History for Marina di Ginosa, Italy

Change the Weather History Date:

Wednesday, January 22, 2014

  Actual Average Record
Temperature  
Mean Temperature 54 °F -  
Max Temperature 62 °F - - ()
Min Temperature 46 °F - - ()
Degree Days  
Heating Degree Days 11    
Growing Degree Days 4 (Base 50)    
Moisture  
Dew Point 46 °F    
Average Humidity 79    
Maximum Humidity 100    
Minimum Humidity 49    
Precipitation  
Precipitation 0.00 in - - ()
Sea Level Pressure  
Sea Level Pressure 29.87 in    
Wind  
Wind Speed 5 mph ()    
Max Wind Speed 9 mph    
Max Gust Speed -    
Visibility 7.2 miles    
Events      
T = Trace of Precipitation, MM = Missing Value Source: Averaged Metar Reports

Daily Weather History Graph

Daily Weather History Graph

Search for Another Location

Airport:

Trip Planner

Search our weather history database for the weather conditions in past years. The results will help you decide how hot, cold, wet, or windy it might be!

Date:

Astronomy

Jan. 22, 2014 Rise Set
Actual Time 7:10 AM CET 4:58 PM CET
Civil Twilight 6:40 AM CET 5:27 PM CET
Nautical Twilight 6:07 AM CET 6:01 PM CET
Astronomical Twilight 5:34 AM CET 6:33 PM CET
Moon 11:14 PM CET (1/22) 10:00 AM CET (1/22)
Length of Visible Light 10h 47m
Length of Day
9h 48m
Waning Gibbous, 68% of the Moon is Illuminated
Jan 22
Waning Gibbous
Jan 24
Last Quarter
Jan 30
New
Feb 6
First Quarter
Feb 15
Full

Hourly Weather History & Observations

Time (CET) Temp. Windchill Dew Point Humidity Pressure Visibility Wind Dir Wind Speed Gust Speed Precip Events Conditions
12:55 AM 50.0 °F - 46.4 °F 87% 29.74 in 6.2 mi WSW 5.8 mph - N/A   Partly Cloudy
1:00 AM 50 °F - 47 °F 86% 29.77 in 6 mi WSW 5.8 mph - -   Scattered Clouds
1:55 AM 50.0 °F - 46.4 °F 87% 29.77 in 6.2 mi SW 6.9 mph - N/A   Partly Cloudy
2:55 AM 50.0 °F - 46.4 °F 87% 29.77 in 6.2 mi WSW 6.9 mph - N/A   Scattered Clouds
3:55 AM 50.0 °F - 48.2 °F 94% 29.77 in 6.2 mi SSW 5.8 mph - N/A   Scattered Clouds
4:00 AM 50 °F - 49 °F 95% 29.80 in 6 mi SSW 5.8 mph - -   Partly Cloudy
4:55 AM 50.0 °F - 48.2 °F 94% 29.80 in 6.2 mi WSW 8.1 mph - N/A   Scattered Clouds
5:55 AM 48.2 °F - 48.2 °F 100% 29.80 in 6.2 mi WSW 8.1 mph - N/A   Scattered Clouds
6:55 AM 46.4 °F 42.9 °F 46.4 °F 100% 29.80 in 6.2 mi WSW 6.9 mph - N/A   Scattered Clouds
7:00 AM 47 °F - 47 °F 98% 29.81 in 6 mi WSW 6.9 mph - -   Partly Cloudy
7:55 AM 46.4 °F 42.9 °F 46.4 °F 100% 29.83 in 6.2 mi West 6.9 mph - N/A   Scattered Clouds
8:55 AM 46.4 °F - 46.4 °F 100% 29.86 in 6.2 mi Calm Calm - N/A   Mostly Cloudy
9:55 AM 50.0 °F - 48.2 °F 94% 29.86 in 6.2 mi Calm Calm - N/A   Mostly Cloudy
10:00 AM 51 °F - 49 °F 89% 29.88 in 12 mi Calm Calm - -   Mostly Cloudy
10:55 AM 55.4 °F - 46.4 °F 72% 29.89 in 6.2 mi WNW 8.1 mph - N/A   Mostly Cloudy
11:55 AM 59.0 °F - 44.6 °F 59% 29.89 in 6.2 mi WNW 9.2 mph - N/A   Scattered Clouds
12:55 PM 60.8 °F - 46.4 °F 59% 29.89 in 6.2 mi WNW 8.1 mph - N/A   Scattered Clouds
1:00 PM 60 °F - 46 °F 49% 29.90 in 12 mi WNW 8.1 mph - -   Partly Cloudy
1:55 PM 60.8 °F - 46.4 °F 59% 29.89 in 6.2 mi Calm Calm - N/A   Mostly Cloudy
2:55 PM 59.0 °F - 46.4 °F 63% 29.89 in 6.2 mi WNW 8.1 mph - N/A   Mostly Cloudy
3:55 PM 59.0 °F - 48.2 °F 67% 29.89 in 6.2 mi WNW 8.1 mph - N/A   Mostly Cloudy
4:00 PM 59 °F - 48 °F 58% 29.90 in 12 mi WNW 8.1 mph - -   Mostly Cloudy
4:55 PM 57.2 °F - 46.4 °F 67% 29.92 in 6.2 mi WNW 8.1 mph - N/A   Mostly Cloudy
5:55 PM 55.4 °F - 44.6 °F 67% 29.92 in 6.2 mi WNW 8.1 mph - N/A   Mostly Cloudy
6:55 PM 53.6 °F - 44.6 °F 72% 29.92 in 6.2 mi WNW 8.1 mph - N/A   Scattered Clouds
7:00 PM 54 °F - 44 °F 60% 29.94 in 12 mi WNW 8.1 mph - -   Partly Cloudy
7:55 PM 51.8 °F - 44.6 °F 76% 29.95 in 6.2 mi Calm Calm - N/A   Partly Cloudy
8:55 PM 51.8 °F - 44.6 °F 76% 29.98 in 6.2 mi WNW 5.8 mph - N/A   Partly Cloudy
9:55 PM 51.8 °F - 44.6 °F 76% 29.98 in - WNW 5.8 mph - N/A   Clear
10:00 PM 51 °F - 45 °F 72% 30.00 in 12 mi WNW 5.8 mph - -  
10:55 PM 50.0 °F - 44.6 °F 82% 29.98 in - WNW 5.8 mph - N/A   Clear
11:55 PM 48.2 °F - 44.6 °F 87% 29.98 in - NW 5.8 mph - N/A   Clear